Change the Weather History Date:

Saturday, February 9, 2013

  Actual Average (KMSP) Record (KMSP)
Temperature  
Mean Temperature 26 °F 19 °F  
Max Temperature 32 °F 27 °F 52 °F (1966)
Min Temperature 21 °F 11 °F -33 °F (1899)
Degree Days  
Heating Degree Days 38 46  
Month to date heating degree days 425  
Since 1 July heating degree days 4979  
Cooling Degree Days 0 0  
Month to date cooling degree days 0  
Year to date cooling degree days 0  
Moisture  
Dew Point 25 °F    
Average Humidity 88    
Maximum Humidity 93    
Minimum Humidity 80    
Precipitation  
Precipitation 0.00 in 0.02 in 0.92 in (1965)
Month to date precipitation 0.20  
Year to date precipitation 1.10  
Snow  
Snow 0.00 in 0.20 in 8.00 in (1939)
Month to date snowfall 2.4  
Since 1 July snowfall 36.4  
Snow Depth -    
Sea Level Pressure  
Sea Level Pressure 30.09 in    
Wind  
Wind Speed 10 mph (SSE)    
Max Wind Speed 17 mph    
Max Gust Speed 23 mph    
Visibility 9 miles    
Events      
T = Trace of Precipitation, MM = Missing Value Source: NWS Daily Summary

Daily Weather History Graph

Daily Weather History Graph

Search for Another Location

Airport or City:

Trip Planner

Search our weather history database for the weather conditions in past years. The results will help you decide how hot, cold, wet, or windy it might be!

Date:

Astronomy

Feb. 09, 2013 Rise Set
Actual Time 7:20 AM CST 5:30 PM CST
Civil Twilight 6:49 AM CST 6:00 PM CST
Nautical Twilight 6:15 AM CST 6:35 PM CST
Astronomical Twilight 5:40 AM CST 7:09 PM CST
Moon 6:32 AM CST (2/9) 5:15 PM CST (2/9)
Length of Visible Light 11h 10m
Length of Day
10h 09m
Waning Crescent, 0% of the Moon is Illuminated
Feb 9
Waning Crescent
Feb 10
New
Feb 17
First Quarter
Feb 25
Full
Mar 4
Last Quarter

Hourly Weather History & Observations

Time (CST) Temp. Windchill Dew Point Humidity Pressure Visibility Wind Dir Wind Speed Gust Speed Precip Events Conditions
12:15 AM 21.2 °F 11.7 °F 17.6 °F 86% 30.27 in 10.0 mi SE 8.1 mph - N/A   Overcast
12:35 AM 21.2 °F 10.1 °F 17.6 °F 86% 30.25 in 10.0 mi SE 10.4 mph - N/A   Overcast
12:55 AM 21.2 °F 10.9 °F 17.6 °F 86% 30.25 in 10.0 mi SE 9.2 mph - N/A   Overcast
1:15 AM 21.2 °F 10.9 °F 17.6 °F 86% 30.24 in 10.0 mi SE 9.2 mph - N/A   Overcast
1:35 AM 21.2 °F 12.6 °F 17.6 °F 86% 30.24 in 10.0 mi SE 6.9 mph - N/A   Overcast
1:55 AM 23.0 °F 10.1 °F 19.4 °F 86% 30.23 in 10.0 mi SSE 15.0 mph - N/A   Overcast
2:15 AM 23.0 °F 11.1 °F 19.4 °F 86% 30.23 in 10.0 mi SE 12.7 mph - N/A   Overcast
2:35 AM 23.0 °F 12.4 °F 21.2 °F 93% 30.22 in 10.0 mi SSE 10.4 mph - N/A   Overcast
2:55 AM 23.0 °F 13.1 °F 21.2 °F 93% 30.21 in 10.0 mi SE 9.2 mph - N/A   Overcast
3:15 AM 23.0 °F 12.4 °F 21.2 °F 93% 30.21 in 10.0 mi SSE 10.4 mph - N/A   Overcast
3:35 AM 24.8 °F 14.6 °F 21.2 °F 86% 30.19 in 10.0 mi SE 10.4 mph 17.3 mph N/A   Overcast
3:55 AM 24.8 °F 13.4 °F 21.2 °F 86% 30.18 in 10.0 mi SSE 12.7 mph - N/A   Overcast
4:15 AM 24.8 °F 12.9 °F 21.2 °F 86% 30.17 in 10.0 mi SSE 13.8 mph 17.3 mph N/A   Overcast
4:35 AM 24.8 °F 16.1 °F 21.2 °F 86% 30.17 in 10.0 mi SE 8.1 mph - N/A   Overcast
4:55 AM 24.8 °F 14.6 °F 23.0 °F 93% 30.17 in 10.0 mi SSE 10.4 mph - N/A   Overcast
5:15 AM 26.6 °F 17.5 °F 23.0 °F 86% 30.17 in 10.0 mi SSE 9.2 mph - N/A   Overcast
5:35 AM 26.6 °F 18.2 °F 23.0 °F 86% 30.16 in 10.0 mi SSE 8.1 mph - N/A   Overcast
5:55 AM 26.6 °F 16.8 °F 23.0 °F 86% 30.15 in 10.0 mi SE 10.4 mph 17.3 mph N/A   Overcast
6:15 AM 26.6 °F 15.7 °F 23.0 °F 86% 30.14 in 10.0 mi SSE 12.7 mph - N/A   Overcast
6:35 AM 26.6 °F 17.5 °F 23.0 °F 86% 30.14 in 10.0 mi SSE 9.2 mph - N/A   Overcast
6:55 AM 26.6 °F 15.7 °F 23.0 °F 86% 30.13 in 10.0 mi SSE 12.7 mph - N/A   Overcast
7:15 AM 26.6 °F 16.2 °F 23.0 °F 86% 30.13 in 10.0 mi SSE 11.5 mph 19.6 mph N/A   Overcast
7:35 AM 26.6 °F 15.2 °F 23.0 °F 86% 30.13 in 7.0 mi SSE 13.8 mph - N/A   Overcast
7:55 AM 26.6 °F 16.2 °F 23.0 °F 86% 30.13 in 10.0 mi SSE 11.5 mph - N/A   Overcast
8:15 AM 26.6 °F 15.7 °F 23.0 °F 86% 30.12 in 10.0 mi SSE 12.7 mph 19.6 mph N/A   Overcast
8:35 AM 26.6 °F 13.8 °F 23.0 °F 86% 30.12 in 10.0 mi SSE 17.3 mph 23.0 mph N/A   Overcast
8:55 AM 28.4 °F 16.2 °F 23.0 °F 80% 30.11 in 10.0 mi SSE 17.3 mph 21.9 mph N/A   Overcast
9:15 AM 28.4 °F 16.6 °F 23.0 °F 80% 30.12 in 10.0 mi South 16.1 mph 20.7 mph N/A   Overcast
9:35 AM 28.4 °F 18.0 °F 23.0 °F 80% 30.13 in 7.0 mi South 12.7 mph 18.4 mph N/A   Overcast
9:55 AM 28.4 °F 17.5 °F 24.8 °F 86% 30.13 in 7.0 mi South 13.8 mph - N/A   Overcast
10:15 AM 28.4 °F 17.5 °F 24.8 °F 86% 30.13 in 10.0 mi South 13.8 mph 18.4 mph N/A   Overcast
10:35 AM 28.4 °F 17.5 °F 24.8 °F 86% 30.13 in 10.0 mi South 13.8 mph 19.6 mph N/A   Overcast
10:55 AM 28.4 °F 18.0 °F 24.8 °F 86% 30.13 in 10.0 mi South 12.7 mph 17.3 mph N/A   Overcast
11:15 AM 28.4 °F 18.0 °F 24.8 °F 86% 30.13 in 10.0 mi South 12.7 mph 17.3 mph N/A   Overcast
11:35 AM 30.2 °F 20.8 °F 24.8 °F 80% 30.12 in 10.0 mi South 11.5 mph - N/A   Overcast
11:55 AM 30.2 °F 20.8 °F 24.8 °F 80% 30.11 in 10.0 mi South 11.5 mph 18.4 mph N/A   Overcast
12:15 PM 30.2 °F 21.3 °F 26.6 °F 86% 30.10 in 10.0 mi South 10.4 mph - N/A   Overcast
12:35 PM 30.2 °F 21.3 °F 26.6 °F 86% 30.10 in 10.0 mi South 10.4 mph - N/A   Overcast
12:55 PM 30.2 °F 20.2 °F 26.6 °F 86% 30.08 in 10.0 mi South 12.7 mph - N/A   Overcast
1:15 PM 30.2 °F 21.3 °F 26.6 °F 86% 30.07 in 10.0 mi South 10.4 mph 16.1 mph N/A   Overcast
1:35 PM 30.2 °F 21.3 °F 26.6 °F 86% 30.06 in 10.0 mi South 10.4 mph - N/A   Overcast
1:55 PM 30.2 °F 22.6 °F 26.6 °F 86% 30.05 in 10.0 mi South 8.1 mph - N/A   Overcast
2:15 PM 30.2 °F 20.8 °F 26.6 °F 86% 30.04 in 10.0 mi SSE 11.5 mph - N/A   Overcast
2:35 PM 30.2 °F 21.9 °F 26.6 °F 86% 30.04 in 10.0 mi SSE 9.2 mph - N/A   Overcast
2:55 PM 30.2 °F 21.9 °F 26.6 °F 86% 30.03 in 10.0 mi SSE 9.2 mph - N/A   Overcast
3:15 PM 30.2 °F 21.3 °F 26.6 °F 86% 30.03 in 10.0 mi SSE 10.4 mph 16.1 mph N/A   Overcast
3:35 PM 32.0 °F 24.2 °F 28.4 °F 87% 30.03 in 10.0 mi SSE 9.2 mph - N/A   Overcast
3:55 PM 32.0 °F 23.6 °F 28.4 °F 87% 30.02 in 10.0 mi SSE 10.4 mph - N/A   Overcast
4:15 PM 30.2 °F 22.6 °F 26.6 °F 86% 30.02 in 10.0 mi SE 8.1 mph - N/A   Overcast
4:35 PM 30.2 °F 21.9 °F 28.4 °F 93% 30.01 in 10.0 mi SSE 9.2 mph - N/A   Overcast
4:55 PM 30.2 °F 21.3 °F 28.4 °F 93% 30.01 in 7.0 mi SE 10.4 mph - N/A   Overcast
5:15 PM 30.2 °F 21.9 °F 28.4 °F 93% 30.01 in 7.0 mi SE 9.2 mph - N/A   Overcast
5:35 PM 30.2 °F 22.6 °F 28.4 °F 93% 30.00 in 7.0 mi SE 8.1 mph - N/A   Overcast
5:55 PM 30.2 °F 21.3 °F 28.4 °F 93% 30.00 in 7.0 mi SSE 10.4 mph - N/A   Overcast
6:15 PM 30.2 °F 21.9 °F 28.4 °F 93% 30.00 in 7.0 mi SSE 9.2 mph - N/A   Overcast
6:35 PM 30.2 °F 21.3 °F 28.4 °F 93% 30.00 in 7.0 mi SE 10.4 mph - N/A   Overcast
6:55 PM 30.2 °F 21.3 °F 28.4 °F 93% 30.00 in 5.0 mi SE 10.4 mph - N/A   Overcast
7:15 PM 30.2 °F 22.6 °F 28.4 °F 93% 30.00 in 5.0 mi SE 8.1 mph - N/A   Overcast
7:35 PM 30.2 °F 22.6 °F 28.4 °F 93% 30.00 in 5.0 mi SSE 8.1 mph - N/A   Overcast
7:55 PM 30.2 °F 21.9 °F 28.4 °F 93% 30.00 in 7.0 mi SE 9.2 mph - N/A   Overcast
8:15 PM 30.2 °F 22.6 °F 28.4 °F 93% 30.00 in 7.0 mi SE 8.1 mph - N/A   Overcast
8:35 PM 30.2 °F 21.9 °F 28.4 °F 93% 30.00 in 5.0 mi SE 9.2 mph - N/A   Overcast
8:55 PM 30.2 °F 22.6 °F 28.4 °F 93% 29.99 in 5.0 mi SE 8.1 mph - N/A   Overcast
9:15 PM 30.2 °F 21.9 °F 28.4 °F 93% 29.99 in 5.0 mi SE 9.2 mph - N/A   Overcast
9:35 PM 30.2 °F 22.6 °F 28.4 °F 93% 29.99 in 5.0 mi SE 8.1 mph - N/A   Overcast
9:55 PM 30.2 °F 22.6 °F 28.4 °F 93% 30.00 in 5.0 mi SSE 8.1 mph - N/A   Overcast
10:15 PM 30.2 °F 23.4 °F 28.4 °F 93% 29.99 in 7.0 mi SE 6.9 mph - N/A   Overcast
10:35 PM 30.2 °F 23.4 °F 28.4 °F 93% 29.98 in 7.0 mi SE 6.9 mph - N/A   Overcast
10:55 PM 30.2 °F 23.4 °F 28.4 °F 93% 29.99 in 7.0 mi SE 6.9 mph - N/A   Overcast
11:15 PM 30.2 °F 22.6 °F 28.4 °F 93% 29.99 in 7.0 mi SSE 8.1 mph - N/A   Overcast
11:35 PM 30.2 °F 23.4 °F 28.4 °F 93% 29.98 in 7.0 mi SSE 6.9 mph - N/A   Overcast
11:55 PM 30.2 °F 22.6 °F 28.4 °F 93% 29.97 in 7.0 mi SE 8.1 mph - N/A   Overcast